Simultaneous Nadir Overpasses (SNOs) Predictions

Prediction of SNOs between GOES-17 and AQUA Satellite Orbit:

Table of predicted SNOs for the next 14.0 days since TLE Epoch: 4/8/2023
Index Date Time (GOES-17) GOES-17 Lat,Lon AQUA Lat,Lon Distance(km) Time Diff (sec)
1 04/08/2023 08:54:37 -0.00,-104.74 0.37,-106.58 207.83 80
2 04/10/2023 08:38:11 -0.00,-104.74 -0.33,-103.22 173.00 80
3 04/10/2023 20:59:11 0.00,-104.74 -0.74,-108.30 405.36 80
4 04/12/2023 20:45:24 0.00,-104.72 -0.05,-104.94 24.56 80
5 04/14/2023 20:34:17 -0.00,-104.71 0.69,-101.58 356.69 80
6 04/15/2023 08:55:07 0.00,-104.71 0.42,-106.62 217.78 80
7 04/17/2023 08:38:39 0.00,-104.70 -0.31,-103.26 164.16 80
8 04/17/2023 20:59:38 -0.00,-104.70 -0.77,-108.34 414.20 80
9 04/19/2023 20:45:49 0.00,-104.70 -0.05,-104.97 31.38 80
10 04/21/2023 20:34:39 0.01,-104.69 0.66,-101.60 351.54 80
